TimeEST,TemperatureF,Dew PointF,Humidity,Sea Level PressureIn,VisibilityMPH,Wind Direction,Wind SpeedMPH,Gust SpeedMPH,PrecipitationIn,Events,Conditions,WindDirDegrees,DateUTC
12:15 AM,28.4,12.2,51,29.43,10.0,WNW,8.1,-,N/A,,Mostly Cloudy,290,2013-02-01 05:15:00
12:35 AM,28.4,12.2,51,29.43,10.0,West,6.9,-,N/A,,Overcast,280,2013-02-01 05:35:00
1:15 AM,28.4,8.6,43,29.44,10.0,WSW,12.7,24.2,N/A,,Scattered Clouds,250,2013-02-01 06:15:00
1:35 AM,28.4,6.8,40,29.45,10.0,West,10.4,19.6,N/A,,Scattered Clouds,260,2013-02-01 06:35:00
1:55 AM,26.6,10.4,51,29.46,10.0,WNW,4.6,-,N/A,,Mostly Cloudy,290,2013-02-01 06:55:00
2:15 AM,28.4,10.4,47,29.46,10.0,WSW,5.8,-,N/A,,Overcast,250,2013-02-01 07:15:00
2:35 AM,28.4,6.8,40,29.47,10.0,WSW,13.8,19.6,N/A,,Overcast,250,2013-02-01 07:35:00
3:15 AM,26.6,3.2,37,29.47,10.0,WSW,9.2,19.6,N/A,,Clear,250,2013-02-01 08:15:00
3:35 AM,26.6,5.0,40,29.48,10.0,WSW,11.5,19.6,N/A,,Clear,250,2013-02-01 08:35:00
3:55 AM,26.6,3.2,37,29.48,10.0,WSW,12.7,18.4,N/A,,Clear,250,2013-02-01 08:55:00
4:15 AM,26.6,3.2,37,29.49,10.0,WSW,12.7,-,N/A,,Clear,240,2013-02-01 09:15:00
4:35 AM,26.6,3.2,37,29.50,10.0,WSW,13.8,20.7,N/A,,Clear,240,2013-02-01 09:35:00
5:16 AM,24.8,3.2,40,29.52,10.0,WSW,8.1,17.3,N/A,,Clear,250,2013-02-01 10:16:00
5:35 AM,24.8,3.2,40,29.52,10.0,WSW,8.1,-,N/A,,Clear,240,2013-02-01 10:35:00
5:55 AM,24.8,3.2,40,29.53,10.0,WSW,11.5,-,N/A,,Clear,240,2013-02-01 10:55:00
6:15 AM,24.8,3.2,40,29.54,10.0,WSW,8.1,16.1,N/A,,Clear,240,2013-02-01 11:15:00
6:35 AM,24.8,3.2,40,29.56,10.0,WSW,6.9,-,N/A,,Scattered Clouds,250,2013-02-01 11:35:00
6:56 AM,24.8,3.2,40,29.57,10.0,West,6.9,-,N/A,,Scattered Clouds,260,2013-02-01 11:56:00
7:15 AM,24.8,3.2,40,29.58,10.0,West,8.1,-,N/A,,Mostly Cloudy,260,2013-02-01 12:15:00
7:35 AM,24.8,5.0,43,29.59,10.0,West,5.8,-,N/A,,Overcast,280,2013-02-01 12:35:00
7:55 AM,24.8,5.0,43,29.60,10.0,West,9.2,-,N/A,,Overcast,280,2013-02-01 12:55:00
8:15 AM,24.8,3.2,40,29.62,10.0,NW,10.4,17.3,N/A,,Overcast,310,2013-02-01 13:15:00
8:35 AM,24.8,3.2,40,29.64,10.0,NW,8.1,19.6,N/A,,Overcast,310,2013-02-01 13:35:00
9:15 AM,24.8,3.2,40,29.66,10.0,NW,15.0,18.4,N/A,,Scattered Clouds,310,2013-02-01 14:15:00
9:35 AM,24.8,3.2,40,29.67,10.0,West,12.7,21.9,N/A,,Mostly Cloudy,270,2013-02-01 14:35:00
9:55 AM,24.8,3.2,40,29.68,10.0,West,11.5,17.3,N/A,,Mostly Cloudy,260,2013-02-01 14:55:00
10:15 AM,26.6,6.8,43,29.70,10.0,West,16.1,21.9,N/A,,Mostly Cloudy,260,2013-02-01 15:15:00
10:35 AM,24.8,1.4,36,29.71,10.0,West,16.1,31.1,N/A,,Mostly Cloudy,260,2013-02-01 15:35:00
10:55 AM,26.6,1.4,34,29.72,10.0,WNW,17.3,27.6,N/A,,Partly Cloudy,290,2013-02-01 15:55:00
11:15 AM,24.8,1.4,36,29.72,10.0,WNW,13.8,23.0,N/A,,Scattered Clouds,300,2013-02-01 16:15:00
11:35 AM,24.8,1.4,36,29.72,10.0,NW,16.1,20.7,N/A,,Mostly Cloudy,310,2013-02-01 16:35:00
11:55 AM,24.8,1.4,36,29.73,10.0,West,13.8,18.4,N/A,,Mostly Cloudy,280,2013-02-01 16:55:00
12:15 PM,24.8,1.4,36,29.73,10.0,West,12.7,20.7,N/A,,Scattered Clouds,280,2013-02-01 17:15:00
12:35 PM,26.6,1.4,34,29.72,10.0,WNW,12.7,19.6,N/A,,Clear,290,2013-02-01 17:35:00
1:15 PM,26.6,1.4,34,29.72,10.0,West,9.2,16.1,N/A,,Mostly Cloudy,280,2013-02-01 18:15:00
1:35 PM,26.6,1.4,34,29.72,10.0,NW,12.7,18.4,N/A,,Mostly Cloudy,310,2013-02-01 18:35:00
2:15 PM,26.6,1.4,34,29.72,10.0,NNW,13.8,18.4,N/A,,Clear,330,2013-02-01 19:15:00
2:35 PM,26.6,1.4,34,29.72,10.0,NNW,18.4,21.9,N/A,,Clear,330,2013-02-01 19:35:00
2:55 PM,26.6,1.4,34,29.72,10.0,NW,17.3,25.3,N/A,,Clear,310,2013-02-01 19:55:00
3:15 PM,24.8,1.4,36,29.72,10.0,NNW,20.7,28.8,N/A,,Clear,340,2013-02-01 20:15:00
3:35 PM,24.8,1.4,36,29.74,10.0,NNW,19.6,24.2,N/A,,Clear,330,2013-02-01 20:35:00
3:55 PM,24.8,1.4,36,29.75,10.0,NNW,15.0,23.0,N/A,,Clear,340,2013-02-01 20:55:00
4:15 PM,23.0,1.4,39,29.76,10.0,NW,13.8,-,N/A,,Clear,320,2013-02-01 21:15:00
4:35 PM,21.2,1.4,42,29.78,10.0,NW,10.4,21.9,N/A,,Clear,310,2013-02-01 21:35:00
4:55 PM,21.2,-0.4,39,29.79,10.0,NW,12.7,19.6,N/A,,Clear,310,2013-02-01 21:55:00
5:15 PM,21.2,-0.4,39,29.81,10.0,NW,11.5,-,N/A,,Clear,320,2013-02-01 22:15:00
5:36 PM,19.4,1.4,46,29.82,10.0,WNW,10.4,17.3,N/A,,Clear,300,2013-02-01 22:36:00
5:55 PM,19.4,1.4,46,29.85,10.0,NW,9.2,16.1,N/A,,Mostly Cloudy,320,2013-02-01 22:55:00
6:15 PM,19.4,1.4,46,29.86,10.0,NW,10.4,-,N/A,,Overcast,310,2013-02-01 23:15:00
6:35 PM,19.4,1.4,46,29.87,10.0,NW,12.7,-,N/A,,Overcast,320,2013-02-01 23:35:00
6:55 PM,19.4,1.4,46,29.88,10.0,NW,12.7,17.3,N/A,,Overcast,320,2013-02-01 23:55:00
7:15 PM,19.4,1.4,46,29.90,10.0,NW,11.5,-,N/A,,Overcast,320,2013-02-02 00:15:00
7:35 PM,17.6,1.4,49,29.91,10.0,NNW,11.5,16.1,N/A,,Overcast,330,2013-02-02 00:35:00
7:55 PM,17.6,-0.4,45,29.95,10.0,NW,12.7,17.3,N/A,,Mostly Cloudy,310,2013-02-02 00:55:00
8:15 PM,17.6,-0.4,45,29.94,10.0,NW,10.4,-,N/A,,Mostly Cloudy,310,2013-02-02 01:15:00
8:35 PM,17.6,-0.4,45,29.94,10.0,NW,9.2,-,N/A,,Scattered Clouds,320,2013-02-02 01:35:00
8:55 PM,17.6,-0.4,45,29.95,10.0,NW,10.4,-,N/A,,Partly Cloudy,320,2013-02-02 01:55:00
9:15 PM,17.6,-0.4,45,29.96,10.0,NW,13.8,19.6,N/A,,Clear,320,2013-02-02 02:15:00
9:35 PM,15.8,-0.4,49,29.96,10.0,NNW,15.0,-,N/A,,Clear,330,2013-02-02 02:35:00
10:15 PM,15.8,-0.4,49,29.98,10.0,NW,15.0,23.0,N/A,,Overcast,310,2013-02-02 03:15:00
10:35 PM,15.8,-2.2,45,29.98,10.0,NNW,13.8,20.7,N/A,,Mostly Cloudy,330,2013-02-02 03:35:00
10:55 PM,15.8,-0.4,49,30.01,10.0,NNW,12.7,18.4,N/A,,Overcast,330,2013-02-02 03:55:00
11:15 PM,15.8,-2.2,45,29.99,10.0,NNW,15.0,19.6,N/A,,Scattered Clouds,330,2013-02-02 04:15:00
11:35 PM,15.8,-2.2,45,29.99,10.0,NNW,11.5,19.6,N/A,,Clear,330,2013-02-02 04:35:00
11:55 PM,15.8,-0.4,49,29.99,10.0,NNW,10.4,-,N/A,,Clear,330,2013-02-02 04:55:00